Overview Statistics Trail Chart Weather Telemetry Raw packets
 

This is the latest recevied weather packets stored in our database for station/object W5CDN. If no packets are shown the sender has not sent any weather packets the latest 10 day(s).

<< 19 20 21 22 23 24 25 >>
Time Temp. Humidity Pressure Rain* Wind** Luminosity Snow
1788292436 33.33° C 52% 1013.3 hPa 0 mm - - -
1788292136 34.44° C 52% 1013.4 hPa 0 mm - - -
1788291836 34.44° C 51% 1013.3 hPa 0 mm - - -
1788291541 35.56° C 50% 1013.4 hPa 0 mm - - -
1788291236 34.44° C 51% 1013.5 hPa 0 mm - - -
1788290936 34.44° C 50% 1013.5 hPa 0 mm - - -
1788290636 34.44° C 52% 1013.5 hPa 0 mm - - -
1788290336 35° C 51% 1013.3 hPa 0 mm - - -
1788290036 35° C 51% 1013.5 hPa 0 mm - - -
1788289736 35° C 51% 1013.6 hPa 0 mm - - -
1788289436 35.56° C 50% 1013.7 hPa 0 mm - - -
1788289136 35° C 50% 1013.6 hPa 0 mm - - -
1788288836 35° C 49% 1013.7 hPa 0 mm - - -
1788288536 33.33° C 52% 1014 hPa 0 mm - - -
1788288236 33.89° C 54% 1014.3 hPa 0 mm - - -
1788287936 33.89° C 54% 1014.1 hPa 0 mm - - -
1788287636 33.89° C 54% 1014.4 hPa 0 mm - - -
1788287336 35° C 53% 1014.3 hPa 0 mm - - -
1788287036 36.11° C 50% 1014.5 hPa 0 mm - - -
1788286736 35.56° C 50% 1014.5 hPa 0 mm - - -
1788286436 35.56° C 48% 1014.4 hPa 0 mm - - -
1788286136 35° C 52% 1014.7 hPa 0 mm - - -
1788285836 35° C 51% 1014.7 hPa 0 mm - - -
1788285536 33.89° C 54% 1014.6 hPa 0 mm - - -
1788285236 33.89° C 54% 1015 hPa 0 mm - - -

* Rain latest hour (hover to see other rain measurements)
** Current wind speed in m/s (hover to see current wind gust speed)